Weather History for Troy, MI

Change the Weather History Date:

Thursday, December 6, 2012

  Actual Average (KDET) Record (KDET)
Temperature  
Mean Temperature 35 °F -  
Max Temperature 42 °F 39 °F 68 °F (1998)
Min Temperature 28 °F 27 °F 10 °F (1958)
Degree Days  
Heating Degree Days 30    
Moisture  
Dew Point 28 °F    
Average Humidity 74    
Maximum Humidity 86    
Minimum Humidity 58    
Precipitation  
Precipitation 0.00 in - - ()
Sea Level Pressure  
Sea Level Pressure 30.18 in    
Wind  
Wind Speed 2 mph (South)    
Max Wind Speed 12 mph    
Max Gust Speed -    
Visibility 10 miles    
Events      
Averages and records for this station are not official NWS values.
T = Trace of Precipitation, MM = Missing Value Source: NWS Daily Summary

Daily Weather History Graph

Daily Weather History Graph

Search for Another Location

Airport:

Trip Planner

Search our weather history database for the weather conditions in past years. The results will help you decide how hot, cold, wet, or windy it might be!

Date:

Astronomy

Dec. 06, 2012 Rise Set
Actual Time 7:48 AM EST 4:59 PM EST
Civil Twilight 7:16 AM EST 5:31 PM EST
Nautical Twilight 6:41 AM EST 6:06 PM EST
Astronomical Twilight 6:07 AM EST 6:40 PM EST
Moon No Moon Rise 12:33 PM EST (12/6)
Length of Visible Light 10h 14m
Length of Day
9h 11m
Waning Gibbous, 49% of the Moon is Illuminated
Dec 6
Waning Gibbous
Dec 13
New
Dec 20
First Quarter
Dec 28
Full
Jan 4
Last Quarter

Hourly Weather History & Observations

Time (EST) Temp. Windchill Dew Point Humidity Pressure Visibility Wind Dir Wind Speed Gust Speed Precip Events Conditions
12:15 AM 30.2 °F - 22.6 °F 73% 30.38 in 10.0 mi Calm Calm - N/A   Scattered Clouds
12:35 AM 30.6 °F - 22.5 °F 72% 30.38 in 10.0 mi Calm Calm - N/A   Clear
12:54 AM 30.4 °F - 22.3 °F 72% 30.37 in 10.0 mi Calm Calm - N/A   Clear
1:15 AM 30.0 °F - 23.0 °F 75% 30.36 in 10.0 mi Calm Calm - N/A   Clear
1:35 AM 30.2 °F - 23.0 °F 75% 30.36 in 10.0 mi Calm Calm - N/A   Clear
1:54 AM 30.6 °F 27.1 °F 23.0 °F 74% 30.35 in 10.0 mi East 3.5 mph - N/A   Clear
2:15 AM 30.0 °F - 23.4 °F 76% 30.35 in 10.0 mi Calm Calm - N/A   Clear
2:35 AM 29.3 °F - 23.9 °F 80% 30.34 in 10.0 mi Calm Calm - N/A   Clear
2:54 AM 29.1 °F - 23.5 °F 80% 30.34 in 10.0 mi Calm Calm - N/A   Clear
3:15 AM 29.5 °F - 24.3 °F 81% 30.33 in 10.0 mi Calm Calm - N/A   Clear
3:35 AM 30.0 °F - 24.4 °F 80% 30.34 in 10.0 mi Calm Calm - N/A   Clear
3:54 AM 30.0 °F - 25.0 °F 82% 30.33 in 10.0 mi Calm Calm - N/A   Clear
4:15 AM 30.2 °F 26.7 °F 25.2 °F 82% 30.32 in 10.0 mi SE 3.5 mph - N/A   Clear
4:34 AM 30.2 °F - 24.8 °F 80% 30.32 in 10.0 mi Calm Calm - N/A   Clear
4:55 AM 30.6 °F 27.1 °F 25.3 °F 81% 30.32 in 10.0 mi SE 3.5 mph - N/A   Clear
5:15 AM 31.1 °F - 25.3 °F 79% 30.32 in 10.0 mi Calm Calm - N/A   Clear
5:34 AM 31.1 °F - 25.5 °F 80% 30.31 in 10.0 mi Calm Calm - N/A   Clear
5:55 AM 31.1 °F - 25.5 °F 80% 30.31 in 10.0 mi Calm Calm - N/A   Clear
6:14 AM 31.6 °F - 25.7 °F 79% 30.31 in 10.0 mi Calm Calm - N/A   Clear
6:35 AM 31.1 °F - 25.7 °F 80% 30.30 in 10.0 mi Calm Calm - N/A   Clear
6:55 AM 30.7 °F - 25.7 °F 82% 30.30 in 10.0 mi Calm Calm - N/A   Clear
7:14 AM 29.8 °F - 25.3 °F 83% 30.29 in 10.0 mi Calm Calm - N/A   Clear
7:35 AM 28.9 °F - 24.6 °F 84% 30.28 in 10.0 mi Calm Calm - N/A   Clear
7:54 AM 29.3 °F - 25.5 °F 86% 30.28 in 10.0 mi Calm Calm - N/A   Clear
8:15 AM 29.3 °F - 25.5 °F 86% 30.27 in 10.0 mi Calm Calm - N/A   Clear
8:35 AM 31.5 °F - 27.3 °F 85% 30.27 in 10.0 mi Calm Calm - N/A   Clear
8:54 AM 32.5 °F - 28.2 °F 84% 30.25 in 10.0 mi Calm Calm - N/A   Scattered Clouds
9:15 AM 33.6 °F - 29.1 °F 84% 30.24 in 10.0 mi Calm Calm - N/A   Mostly Cloudy
9:35 AM 34.7 °F - 29.8 °F 82% 30.24 in 10.0 mi Calm Calm - N/A   Overcast
9:54 AM 35.6 °F - 30.2 °F 81% 30.23 in 10.0 mi Calm Calm - N/A   Overcast
10:15 AM 37.4 °F 32.8 °F 31.1 °F 78% 30.23 in 10.0 mi SSE 5.8 mph - N/A   Overcast
10:35 AM 38.5 °F 35.0 °F 31.6 °F 76% 30.22 in 10.0 mi South 4.6 mph - N/A   Overcast
10:54 AM 39.2 °F 32.0 °F 31.8 °F 75% 30.22 in 10.0 mi South 11.5 mph - N/A   Overcast
11:15 AM 39.4 °F 33.8 °F 31.3 °F 73% 30.21 in 10.0 mi South 8.1 mph - N/A   Scattered Clouds
11:34 AM 39.9 °F 33.4 °F 30.9 °F 70% 30.19 in 10.0 mi SSE 10.4 mph - N/A   Scattered Clouds
11:55 AM 40.1 °F 33.6 °F 31.1 °F 70% 30.18 in 10.0 mi South 10.4 mph - N/A   Scattered Clouds
12:15 PM 40.5 °F 34.6 °F 31.1 °F 69% 30.17 in 10.0 mi South 9.2 mph - N/A   Scattered Clouds
12:34 PM 41.0 °F 35.2 °F 31.1 °F 68% 30.16 in 10.0 mi SSW 9.2 mph - N/A   Mostly Cloudy
12:55 PM 41.4 °F 35.7 °F 30.2 °F 65% 30.15 in 10.0 mi South 9.2 mph - N/A   Mostly Cloudy
1:15 PM 41.2 °F 35.5 °F 30.4 °F 65% 30.14 in 10.0 mi South 9.2 mph - N/A   Scattered Clouds
1:34 PM 41.4 °F 37.6 °F 30.7 °F 66% 30.12 in 10.0 mi South 5.8 mph - N/A   Clear
1:55 PM 41.2 °F 36.6 °F 29.5 °F 63% 30.11 in 10.0 mi SSW 6.9 mph - N/A   Clear
2:15 PM 41.7 °F 38.8 °F 29.5 °F 62% 30.11 in 10.0 mi SSW 4.6 mph - N/A   Clear
2:34 PM 41.4 °F 37.6 °F 29.1 °F 62% 30.10 in 10.0 mi SW 5.8 mph - N/A   Clear
2:54 PM 41.9 °F 38.2 °F 28.4 °F 59% 30.09 in 10.0 mi SSW 5.8 mph - N/A   Clear
3:14 PM 42.1 °F 38.4 °F 28.2 °F 58% 30.08 in 10.0 mi SSE 5.8 mph - N/A   Clear
3:35 PM 42.1 °F 40.2 °F 28.4 °F 58% 30.08 in 10.0 mi SE 3.5 mph - N/A   Clear
3:55 PM 42.1 °F 39.2 °F 28.4 °F 58% 30.08 in 10.0 mi SSE 4.6 mph - N/A   Clear
4:14 PM 42.1 °F 39.2 °F 28.8 °F 59% 30.07 in 10.0 mi South 4.6 mph - N/A   Clear
4:35 PM 41.9 °F 40.0 °F 28.6 °F 59% 30.07 in 10.0 mi SE 3.5 mph - N/A   Clear
4:54 PM 41.2 °F 37.3 °F 30.0 °F 65% 30.06 in 10.0 mi SSE 5.8 mph - N/A   Clear
5:15 PM 40.8 °F 36.2 °F 30.2 °F 66% 30.05 in 10.0 mi SSE 6.9 mph - N/A   Clear
5:35 PM 40.8 °F 37.8 °F 30.6 °F 67% 30.06 in 10.0 mi South 4.6 mph - N/A   Clear
5:54 PM 40.5 °F 36.5 °F 30.9 °F 69% 30.06 in 10.0 mi South 5.8 mph - N/A   Clear
6:15 PM 39.7 °F 36.5 °F 31.1 °F 71% 30.06 in 10.0 mi South 4.6 mph - N/A   Clear
6:35 PM 39.2 °F 33.6 °F 31.6 °F 74% 30.05 in 10.0 mi South 8.1 mph - N/A   Clear
6:54 PM 39.2 °F 35.9 °F 31.6 °F 74% 30.05 in 10.0 mi South 4.6 mph - N/A   Clear
7:15 PM 39.2 °F 33.0 °F 31.1 °F 73% 30.05 in 10.0 mi South 9.2 mph - N/A   Scattered Clouds
7:34 PM 39.2 °F 35.0 °F 31.1 °F 73% 30.05 in 10.0 mi South 5.8 mph - N/A   Mostly Cloudy
7:55 PM 39.0 °F 33.4 °F 31.1 °F 73% 30.04 in 10.0 mi South 8.1 mph - N/A   Scattered Clouds
8:15 PM 39.2 °F 34.2 °F 31.8 °F 75% 30.04 in 10.0 mi South 6.9 mph - N/A   Clear
8:34 PM 38.8 °F 34.6 °F 32.0 °F 76% 30.03 in 10.0 mi South 5.8 mph - N/A   Clear
8:55 PM 38.7 °F 33.6 °F 32.0 °F 77% 30.03 in 10.0 mi South 6.9 mph - N/A   Scattered Clouds
9:35 PM 39.0 °F 35.7 °F 32.4 °F 77% 30.02 in 10.0 mi South 4.6 mph - N/A   Clear
9:55 PM 39.2 °F 35.9 °F 32.4 °F 76% 30.01 in 10.0 mi South 4.6 mph - N/A   Scattered Clouds
10:14 PM 39.2 °F - 32.5 °F 77% 30.01 in 10.0 mi Calm Calm - N/A   Clear
10:35 PM 38.8 °F 36.5 °F 32.5 °F 78% 30.01 in 10.0 mi South 3.5 mph - N/A   Scattered Clouds
10:55 PM 39.0 °F 36.8 °F 32.9 °F 79% 30.01 in 10.0 mi SSW 3.5 mph - N/A   Mostly Cloudy
11:15 PM 38.8 °F - 32.9 °F 79% 30.00 in 10.0 mi Calm Calm - N/A   Scattered Clouds
11:34 PM 38.7 °F - 32.9 °F 80% 30.00 in 10.0 mi Calm Calm - N/A   Scattered Clouds
11:55 PM 39.6 °F - 33.4 °F 79% 30.00 in 10.0 mi Calm Calm - N/A   Clear